User: anonymous   Login
Location: Unspecified
(0.0000°N, 0.0000°E)
Time: 18:49:39
(UTC+00:00)
Language:

Tiros 1 - Orbit

View from above orbital plane
View from above orbital plane
View from above satellite
View from above satellite

Ground track
Ground track

The orbit data is extracted from the following two-line orbital elements,

1    29U 60002B   19107.63268782 -.00000105 +00000-0 +15277-4 0  9992
2    29 048.3787 162.8243 0024450 207.8386 152.1218 14.74298569155562
Epoch (UTC): 17 April 2019 15:11:04
Eccentricity: 0.0024450
inclination: 48.3787°
perigee height: 630 km
apogee height: 664 km
right ascension of ascending node: 162.8243°
argument of perigee: 207.8386°
revolutions per day: 14.74298569
mean anomaly at epoch: 152.1218°
orbit number at epoch: 15556

The dashed part of the orbit path shows where the satellite is in the earth's shadow,  

DLR